Weather reports worldwide

Advertisment
Medina De Pomar, Spain (8063): temperature & dewpoint: 13.03.2019 10:00:00 - 19.03.2019 10:00:00 (CET)Medina De Pomar, Spain (8063): wind speed & gusts: 13.03.2019 10:00:00 - 19.03.2019 10:00:00 (CET)Medina De Pomar, Spain (8063): wind direction: 13.03.2019 10:00:00 - 19.03.2019 10:00:00 (CET)Medina De Pomar, Spain (8063): reduced air pressure: 13.03.2019 10:00:00 - 19.03.2019 10:00:00 (CET)Medina De Pomar, Spain (8063): visibility: 13.03.2019 10:00:00 - 19.03.2019 10:00:00 (CET)Medina De Pomar, Spain (8063): sunshine duration: 13.03.2019 10:00:00 - 19.03.2019 10:00:00 (CET)Medina De Pomar, Spain (8063): precipitation: 13.03.2019 10:00:00 - 19.03.2019 10:00:00 (CET)
Date & Time tt [°C] td [°C] ff [km/h] ff [kn] fx [km/h] fx [kn] dd ppp [hPa] vv [km] sd [min] rr [mm]
19.03.2019 10:00:00 - - - - - - - - - - -
19.03.2019 09:00:00 - - - - - - - - - - -
19.03.2019 08:00:00 - - - - - - - - - - -
19.03.2019 07:00:00 - - - - - - - - - - -
19.03.2019 06:00:00 - - - - - - - - - - -
19.03.2019 05:00:00 - - - - - - - - - - -
19.03.2019 04:00:00 - - - - - - - - - - -
19.03.2019 03:00:00 - - - - - - - - - - -
19.03.2019 02:00:00 5,0 2,1 3 1 7 4 WNW 1029,9 20 0 0,0
19.03.2019 01:00:00 - - - - - - - - - - -
19.03.2019 00:00:00 - - - - - - - - - - -
18.03.2019 23:00:00 6,4 0,4 5 3 15 8 NNE 1030,3 20 0 0,0
18.03.2019 22:00:00 - - - - - - - - - - -
18.03.2019 21:00:00 6,4 0,0 3 2 17 9 NNE 1030,3 20 0 0,0
18.03.2019 20:00:00 - - - - - - - - - - -
18.03.2019 19:00:00 7,5 0,6 7 4 25 14 N 1029,5 20 13 -
18.03.2019 18:00:00 - - - - - - - - - - -
18.03.2019 17:00:00 - - - - - - - - - - -
18.03.2019 16:00:00 - - - - - - - - - - -
18.03.2019 15:00:00 - - - - - - - - - - -
18.03.2019 14:00:00 - - - - - - - - - - -
18.03.2019 13:00:00 - - - - - - - - - - -
18.03.2019 12:00:00 7,5 0,6 10 5 25 13 N 1030,2 20 32 0,0
18.03.2019 11:00:00 6,7 1,5 6 4 17 9 N 1030,6 20 24 0,0
18.03.2019 10:00:00 - - - - - - - - - - -
18.03.2019 09:00:00 - - - - - - - - - - -
18.03.2019 08:00:00 0,4 -1,0 2 1 10 5 SW 1030,5 20 0 0,0
18.03.2019 07:00:00 - - - - - - - - - - -
18.03.2019 06:00:00 1,1 -0,7 3 1 13 7 WSW 1029,9 20 0 0,0
18.03.2019 05:00:00 - - - - - - - - - - -
18.03.2019 04:00:00 1,5 -0,5 3 2 10 5 N 1029,2 16 0 0,0
18.03.2019 03:00:00 - - - - - - - - - - -
18.03.2019 02:00:00 - - - - - - - - - - -
18.03.2019 01:00:00 - - - - - - - - - - -
18.03.2019 00:00:00 - - - - - - - - - - -
17.03.2019 23:00:00 3,2 -0,3 4 2 6 3 SSE 1029,2 20 0 0,0
17.03.2019 22:00:00 - - - - - - - - - - -
17.03.2019 21:00:00 - - - - - - - - - - -
17.03.2019 20:00:00 - - - - - - - - - - -
17.03.2019 19:00:00 - - - - - - - - - - -
17.03.2019 18:00:00 - - - - - - - - - - -
17.03.2019 17:00:00 - - - - - - - - - - -
17.03.2019 16:00:00 - - - - - - - - - - -
17.03.2019 15:00:00 - - - - - - - - - - -
17.03.2019 14:00:00 - - - - - - - - - - -
17.03.2019 13:00:00 - - - - - - - - - - -
17.03.2019 12:00:00 - - - - - - - - - - -
17.03.2019 11:00:00 9,2 4,5 12 6 32 17 NNE 1022,0 20 0 0,0
17.03.2019 10:00:00 - - - - - - - - - - -
17.03.2019 09:00:00 5,5 3,2 2 1 6 3 SSE 1021,3 11 0 0,0
17.03.2019 08:00:00 4,5 2,7 2 1 7 4 S 1020,5 8 0 0,0
17.03.2019 07:00:00 - - - - - - - - - - -
17.03.2019 06:00:00 5,5 2,7 4 2 15 8 NNE 1019,6 6 0 0,0
17.03.2019 05:00:00 - - - - - - - - - - -
17.03.2019 04:00:00 7,1 3,8 13 7 24 13 N 1016,9 10 0 0,0
17.03.2019 03:00:00 - - - - - - - - - - -
17.03.2019 02:00:00 7,8 -0,3 1 1 10 6 E 1015,8 20 0 0,0
17.03.2019 01:00:00 - - - - - - - - - - -
17.03.2019 00:00:00 10,3 0,6 3 2 10 5 E 1016,3 20 0 0,0
16.03.2019 23:00:00 - - - - - - - - - - -
16.03.2019 22:00:00 - - - - - - - - - - -
16.03.2019 21:00:00 14,5 0,0 3 1 10 5 NNW 1015,5 20 0 0,0
16.03.2019 20:00:00 - - - - - - - - - - -
16.03.2019 19:00:00 - - - - - - - - - - -
16.03.2019 18:00:00 - - - - - - - - - - -
16.03.2019 17:00:00 - - - - - - - - - - -
16.03.2019 16:00:00 23,5 -3,0 14 8 32 17 SW 1015,1 20 60 0,0
16.03.2019 15:00:00 - - - - - - - - - - -
16.03.2019 14:00:00 - - - - - - - - - - -
16.03.2019 13:00:00 15,6 5,0 3 1 7 4 E 1020,1 20 60 -
16.03.2019 12:00:00 - - - - - - - - - - -
16.03.2019 11:00:00 - - - - - - - - - - -
16.03.2019 10:00:00 2,5 1,5 4 2 8 4 ESE 1025,8 0,2 0 0,0
16.03.2019 09:00:00 - - - - - - - - - - -
16.03.2019 08:00:00 1,3 0,2 3 1 6 3 WSW 1026,7 0,1 0 0,0
16.03.2019 07:00:00 1,0 0,0 2 1 4 2 W 1026,9 0,4 0 -
16.03.2019 06:00:00 - - - - - - - - - - -
16.03.2019 05:00:00 0,3 -1,0 3 2 5 3 ENE - - 0 0,0
16.03.2019 04:00:00 - - - - - - - - - - -
16.03.2019 03:00:00 0,7 -1,0 3 2 14 7 NE 1028,8 11 0 0,0
16.03.2019 02:00:00 1,7 0,0 0 0 6 3 N 1029,4 14 0 0,0
16.03.2019 01:00:00 2,6 0,9 2 1 - - NE 1029,4 12 - -
16.03.2019 00:00:00 - - - - - - - - - - -
15.03.2019 23:00:00 5,4 2,5 4 2 12 7 NE 1029,3 20 0 0,0
15.03.2019 22:00:00 - - - - - - - - - - -
15.03.2019 21:00:00 - - - - - - - - - - -
15.03.2019 20:00:00 - - - - - - - - - - -
15.03.2019 19:00:00 - - - - - - - - - - -
15.03.2019 18:00:00 16,0 4,6 9 5 22 12 NNE 1025,3 20 60 0,0
15.03.2019 17:00:00 - - - - - - - - - - -
15.03.2019 16:00:00 - - - - - - - - - - -
15.03.2019 15:00:00 - - - - - - - - - - -
15.03.2019 14:00:00 - - - - - - - - - - -
15.03.2019 13:00:00 - - - - - - - - - - -
15.03.2019 12:00:00 - - - - - - - - - - -
15.03.2019 11:00:00 - - - - - - - - - - -
15.03.2019 10:00:00 2,2 0,2 2 1 6 3 ENE 1033,5 12 60 0,0
15.03.2019 09:00:00 - - - - - - - - - - -
15.03.2019 08:00:00 -1,8 -3,0 3 2 5 3 NE 1034,5 20 5 0,0
15.03.2019 07:00:00 - - - - - - - - - - -
15.03.2019 06:00:00 - - - - - - - - - - -
15.03.2019 05:00:00 -1,4 -2,7 1 1 4 2 ENE 1034,1 15 0 0,0
15.03.2019 04:00:00 -0,8 -2,2 1 1 8 4 ENE 1034,0 17 0 0,0
15.03.2019 03:00:00 - - - - - - - - - - -
15.03.2019 02:00:00 0,3 -1,4 4 2 6 4 NE 1034,7 19 0 0,0
15.03.2019 01:00:00 - - - - - - - - - - -
15.03.2019 00:00:00 - - - - - - - - - - -
14.03.2019 23:00:00 - - - - - - - - - - -
14.03.2019 22:00:00 - - - - - - - - - - -
14.03.2019 21:00:00 - - - - - - - - - - -
14.03.2019 20:00:00 - - - - - - - - - - -
14.03.2019 19:00:00 8,2 2,5 8 5 23 12 WNW 1031,3 20 41 -
14.03.2019 18:00:00 10,6 2,5 9 5 29 16 NW 1030,3 20 60 0,0
14.03.2019 17:00:00 - - - - - - - - - - -
14.03.2019 16:00:00 13,2 2,1 11 6 26 14 WNW 1029,3 20 60 0,0
14.03.2019 15:00:00 - - - - - - - - - - -
14.03.2019 14:00:00 - - - - - - - - - - -
14.03.2019 13:00:00 11,6 1,5 10 6 21 11 W 1031,4 20 60 -
14.03.2019 12:00:00 - - - - - - - - - - -
14.03.2019 11:00:00 9,7 1,1 10 5 23 12 W 1032,8 20 59 0,0
14.03.2019 10:00:00 8,2 0,9 11 6 23 12 W 1033,6 20 60 0,0
14.03.2019 09:00:00 4,8 1,9 6 4 11 6 SSE 1034,0 20 60 0,0
14.03.2019 08:00:00 1,7 0,0 5 3 11 6 S 1034,6 20 1 0,0
14.03.2019 07:00:00 - - - - - - - - - - -
14.03.2019 06:00:00 - - - - - - - - - - -
14.03.2019 05:00:00 4,7 1,1 4 2 16 9 NNE 1033,4 20 0 0,0
14.03.2019 04:00:00 4,3 1,7 3 2 11 6 W 1034,1 20 0 0,0
14.03.2019 03:00:00 - - - - - - - - - - -
14.03.2019 02:00:00 - - - - - - - - - - -
14.03.2019 01:00:00 - - - - - - - - - - -
14.03.2019 00:00:00 5,1 1,9 7 4 22 12 WNW 1035,0 20 0 0,0
13.03.2019 23:00:00 - - - - - - - - - - -
13.03.2019 22:00:00 5,3 1,7 9 5 21 11 WNW 1034,5 20 0 0,0
13.03.2019 21:00:00 - - - - - - - - - - -
13.03.2019 20:00:00 5,2 1,5 9 5 26 14 WNW 1034,0 20 0 0,0
13.03.2019 19:00:00 - - - - - - - - - - -
13.03.2019 18:00:00 - - - - - - - - - - -
13.03.2019 17:00:00 - - - - - - - - - - -
13.03.2019 16:00:00 - - - - - - - - - - -
13.03.2019 15:00:00 - - - - - - - - - - -
13.03.2019 14:00:00 - - - - - - - - - - -
13.03.2019 13:00:00 - - - - - - - - - - -
13.03.2019 12:00:00 - - - - - - - - - - -
13.03.2019 11:00:00 - - - - - - - - - - -
13.03.2019 10:00:00 5,8 1,9 4 2 11 6 E 1030,9 20 1 0,0

tt = temperature
td = dewpoint
ff = wind speed
fx = gusts
dd = wind direction
ppp = reduced air pressure
vv = visibility
sd = sunshine duration
rr = precipitation

Next stations